#timestamp,LO_Frequency,Hit,StdDev 
1658941215.2,286046995.5,N
1658941235.0,286046997.3,N
1658941235.9,286046997.3,N
1658941255.8,286046999.1,N
1658941275.6,286047002.7,N
1658941295.5,286047004.2,N
1658941315.3,286047003.3,N
1658941335.1,286047002.1,N
1658941355.9,286047000.3,N
1658941375.7,286047001.4,N
1658941395.5,286047001.9,N
1658941415.4,286047000.1,N
1658941435.2,286047002.1,N
1658941455.0,286047004.3,N
1658941456.0,286047004.3,N
1658941475.8,286047005.5,N
1658941495.6,286047006.0,N
1658941515.5,286047001.6,N
1658941535.3,286047007.1,N
1658941555.1,286047008.3,N
1658941575.9,286047004.9,N
1658941595.7,286047006.8,N
1658941615.6,286047005.3,N
1658941635.4,286047009.1,N
1658941655.2,286047010.7,N
1658941675.1,286047012.0,Y
1658941676.0,286047012.0,P
1658941695.8,286047013.9,N
1658941715.6,286047012.7,N
1658941735.5,286047013.2,N
1658941755.3,286047011.6,N
1658941775.2,286047006.0,N
1658941795.9,286046996.6,N
1658941815.7,286046997.5,N
1658941835.6,286046995.7,N
1658941855.4,286046991.8,N
1658941875.2,286046996.4,N
1658941895.1,286046995.9,N
1658941896.0,286046995.9,N
1658941915.8,286046999.5,N
1658941935.7,286046998.5,N
1658941955.5,286046996.6,N
1658941975.3,286046997.8,N
1658941995.2,286046995.1,N
1658942015.0,286046992.7,N
1658942015.9,286046992.7,N
1658942035.8,286046992.5,N
1658942055.6,286046989.7,N
1658942075.4,286046987.5,N
1658942095.3,286046989.4,N
1658942115.1,286046985.7,N
1658942135.8,286046983.7,N
1658942155.7,286046984.1,N
1658942175.5,286046982.1,N
1658942195.4,286046983.6,N
1658942215.2,286046981.7,N
1658942235.0,286046979.4,N
1658942235.9,286046979.4,N
1658942255.8,286046979.5,N
1658942275.6,286046978.5,N
1658942295.4,286046976.6,N
1658942315.3,286046974.7,Y
1658942335.1,286046986.1,P
1658942355.9,286046986.7,P
1658942375.7,286046984.8,P
1658942395.5,286046984.4,Y
1658942415.4,286046997.8,P
1658942435.2,286046999.6,N
1658942455.1,286046996.1,N
1658942456.0,286046996.1,N
1658942475.8,286046993.6,N
1658942495.6,286046994.3,N
1658942515.5,286046991.8,N
1658942535.3,286046991.0,N
1658942555.1,286046990.0,N
1658942575.9,286046987.0,Y
1658942595.7,286046992.4,P
1658942615.6,286046990.4,P
1658942635.4,286046993.0,P
1658942655.2,286046992.6,Y
1658942675.1,286046998.3,P
1658942676.0,286046998.3,N
1658942695.8,286046996.9,N
1658942715.7,286046995.9,N
1658942735.5,286046994.9,N
1658942755.3,286046995.4,N
1658942775.2,286046995.5,N
1658942795.0,286046993.8,Y
1658942795.9,286046993.8,P
1658942815.8,286047001.0,N
1658942835.6,286046999.2,N
1658942855.4,286046999.3,N
1658942875.3,286046996.8,N
1658942895.1,286046997.3,N
1658942915.8,286046995.7,N
1658942935.7,286046994.8,N
1658942955.5,286046992.2,Y
1658942975.4,286046993.5,P
1658942995.2,286046996.4,N
1658943015.0,286046993.0,P
1658943015.9,286046993.0,Y
1658943035.8,286046996.2,P
1658943055.6,286046995.3,P
1658943075.5,286046996.0,P
1658943095.3,286046993.5,Y
1658943115.1,286046998.4,P
1658943135.9,286046998.7,N
1658943155.7,286046999.4,N
1658943175.6,286047000.7,N
1658943195.4,286046996.6,N
1658943215.2,286046997.8,N
1658943235.1,286046996.7,N
1658943236.0,286046996.7,N
1658943255.8,286046997.9,N
1658943275.6,286046999.2,N
1658943295.5,286046998.4,N
1658943315.3,286046999.1,N
1658943335.2,286046999.6,N
1658943355.9,286046999.3,N
1658943375.7,286046995.3,Y
1658943395.6,286046997.6,P
1658943415.4,286046998.0,P
1658943435.2,286046998.9,P
1658943455.1,286046998.5,Y
1658943456.0,286046998.5,P
1658943475.8,286046998.5,P
1658943495.7,286047000.6,P
1658943515.5,286046999.3,N
1658943535.3,286046996.9,Y
1658943555.2,286047000.2,P
1658943575.0,286046999.4,N
1658943575.9,286046999.4,N
1658943595.8,286046996.8,Y
1658943615.6,286046997.1,P
1658943635.4,286046997.4,N
1658943655.3,286046994.9,P
1658943675.1,286046996.2,N
1658943695.8,286046994.2,Y
1658943715.7,286046999.6,P
1658943735.5,286046997.3,N
1658943755.4,286046995.4,P
1658943775.2,286046994.9,Y
1658943795.0,286046998.4,P
1658943795.9,286046998.4,P
1658943815.8,286046996.9,P
1658943835.6,286046999.0,N
1658943855.5,286046998.6,N
1658943875.3,286046998.9,N
1658943895.1,286046998.4,N
1658943915.9,286046999.4,N
1658943935.7,286046999.4,N
1658943955.5,286046998.1,N
1658943975.4,286046998.9,N
1658943995.2,286046999.5,N
1658944015.1,286047000.7,N
1658944016.0,286047000.7,N
1658944035.8,286046998.9,N
1658944055.6,286046998.3,N
1658944075.5,286047001.0,N
1658944095.3,286046998.6,N
1658944115.1,286046999.3,N
1658944135.9,286046998.0,N
1658944155.7,286046995.4,Y
1658944175.6,286046998.6,P
1658944195.4,286046999.1,P
1658944215.2,286046996.9,P
1658944235.1,286046997.1,Y
1658944236.0,286046997.1,P
1658944255.8,286047000.7,N
1658944275.7,286046999.9,N
1658944295.5,286046999.3,N
1658944315.3,286047001.8,N
1658944335.2,286046999.7,N
1658944355.0,286047002.0,N
1658944355.9,286047002.0,N
1658944375.7,286047004.0,N
1658944395.6,286047004.0,N
1658944415.4,286047004.7,N
1658944435.3,286047007.7,Y
1658944455.1,286047004.5,P
1658944475.8,286047006.1,P
1658944495.7,286047004.6,N
1658944515.5,286047004.5,N
1658944535.4,286047006.1,Y
1658944555.2,286047002.9,P
1658944575.0,286047004.8,P
1658944575.9,286047004.8,P
1658944595.8,286047004.9,Y
1658944615.6,286047002.6,P
1658944635.4,286046998.3,N
1658944655.3,286046999.9,N
1658944675.1,286047002.0,N
1658944695.9,286046999.7,N
1658944715.7,286047000.1,N
1658944735.5,286047000.2,N
1658944755.4,286046999.8,N
1658944775.2,286046998.1,N
1658944795.0,286047000.5,N
1658944795.9,286047000.5,N
